DMSP 5D-2 F11 DEB, 28304

Orbit data source: Space-Track

DMSP 5D-2 F11 DEB, 28304 is space debris in SSO originally from a launch on Thu, 28 Nov 1991 UTC launched from the Air Force Western Test Range (AFWTR). Debris objects in space refer to the collection of defunct objects orbiting the Earth. Examples of debris include non-operational satellites, rocket bodies, and fragments generated from explosions, collisions, or faulty payload assembly.

Loading next visibility...
Identifier
28304, 1991-082R
Orbit
SSO
Country
Flag of USUS
Related business
Manufacturer
Unknown
Mission
Spacecraft
Bus & Motor
Unknown
Mass
Unknown
Launch date (UTC)
1991-11-28 (34 years ago)
Launch vehicle
Unknown
Launch site
Air Force Western Test Range (AFWTR)
Object type
Payload
Rocket body
Debris
Shape & HBR
Unknown shape, 0.2 m
Radar Cross Section
Small (<0.1 m²)

Expand to show TLE details & history
Last TLE update: 8 hours ago

TLE from 8 hours ago
0 DMSP 5D-2 F11 DEB
1 28304U 91082R   26121.34238852  .00000106  00000-0  74129-4 0  9998
2 28304  98.6951 150.1898 0013594  62.4029 309.0614 14.17030442138544
Epoch: 2026-05-01T08:13Z
TLE epoch observation values (Epoch: 2026-05-01T08:13:02.368Z)
Latitude
11.16379°
Longitude
165.93355°
Altitude
831.394 km
Speed
7.441 km/s
True Right ascension
09h 53m 52s
True Declination
11° 05' 58"
Sunlit
Object was in daylight at epoch
Visualization orbit readout
Latitude
Unknown
Longitude
Unknown
Altitude
Unknown
Speed
Unknown
Apparent Right ascension
Unknown
Apparent Declination
Unknown
Sunlit
N/A
Visualization observer readout
Local Sidereal Time
00:17:58
Azimuth
Unknown
Elevation
Unknown
Doppler factor
Unknown
Orbital elements
Apogee altitude
842.377 km
Perigee altitude
822.773 km
Semi-major axis
7,210.712 km
Eccentricity
0.00136
Inclination
98.6951°
RAAN
150.1898°
Arg. of periapsis
62.4029°
True anomaly
308.94032°
Mean anomaly
309.0614°
Eccentric anomaly
309.00087°
Mean motion
3.54467 °/min
Orbital period
101.56 mins
BSTAR
0.000074129
Loading maneuver chart data...
Computing Atmospheric mass density...
Loading historical data...
Loading historical data...
Loading historical data...
Loading historical data...
Loading historical data...
Loading historical data...
Loading historical data...

Documentation

Showing up to 5 results
|